WA2CLK Weather Reports


time (UTC)temp
F
wind
direction
speed
knots
gust
knots
rain 1hr
in
rain 24hr
in
rain mn
in
humidity
%
barometer
mb
20260906113607 72 0 0.0 0.0 0.00 2.45 0.01 97 1010.3
20260906112707 71 0 0.0 0.0 0.00 2.45 0.01 96 1010.2
20260906112019 71 0 0.0 0.0 0.00 2.45 0.01 96 1010.0
20260906110907 71 5 0.0 0.9 0.00 2.45 0.01 96 1009.8
20260906110007 71 5 0.0 3.5 0.00 2.45 0.01 96 1009.8
20260906105407 71 5 0.0 3.5 0.00 2.45 0.01 96 1009.8
20260906104507 71 357 0.9 5.2 0.00 2.45 0.01 96 1009.8
20260906103607 71 354 0.0 3.5 0.00 2.45 0.01 96 1009.7
20260906102707 71 350 0.0 2.6 0.00 2.45 0.01 96 1009.6
20260906101807 71 350 0.0 0.9 0.00 2.45 0.01 96 1009.6
20260906100907 71 349 0.0 2.6 0.00 2.45 0.01 96 1009.5
20260906100007 71 343 0.0 0.9 0.00 2.45 0.01 95 1009.2
20260906095616 71 0 0.0 0.0 0.00 2.45 0.01 95 1009.2
20260906094507 71 0 0.0 0.0 0.00 2.45 0.01 95 1009.1
20260906093607 71 0 0.0 0.0 0.00 2.45 0.01 95 1009.0
20260906092707 71 0 0.0 0.0 0.00 2.45 0.01 95 1009.0
20260906091807 71 0 0.0 0.0 0.00 2.45 0.01 95 1009.0
20260906090907 71 0 0.0 0.0 0.00 2.45 0.01 95 1009.2
20260906090007 71 0 0.0 0.0 0.00 2.45 0.01 95 1009.0
20260906085407 71 0 0.0 0.0 0.00 2.45 0.01 95 1009.0
20260906084507 71 0 0.0 0.0 0.00 2.45 0.01 95 1009.1
20260906083607 71 0 0.0 0.0 0.00 2.45 0.01 95 1009.0
20260906082707 72 0 0.0 0.0 0.00 2.45 0.01 95 1009.1
20260906081807 72 0 0.0 0.0 0.00 2.45 0.01 95 1008.9
20260906080907 72 0 0.0 0.0 0.00 2.45 0.01 94 1009.0
20260906080007 72 0 0.0 0.0 0.00 2.45 0.01 94 1009.0
20260906075407 72 0 0.0 0.0 0.00 2.45 0.01 94 1009.0
20260906074507 72 0 0.0 0.0 0.00 2.45 0.01 94 1009.0
20260906073607 72 0 0.0 0.0 0.00 2.45 0.01 94 1009.2
20260906072707 72 0 0.0 0.0 0.00 2.45 0.01 95 1009.2
20260906071807 72 0 0.0 0.0 0.00 2.45 0.01 95 1009.4
20260906071116 72 0 0.0 0.0 0.00 2.45 0.01 95 1009.6
20260906070007 72 0 0.0 0.0 0.00 2.45 0.01 94 1009.6
20260906065407 72 0 0.0 0.0 0.00 2.45 0.01 94 1009.5
20260906064507 72 0 0.0 0.0 0.00 2.45 0.01 94 1009.7
20260906063607 72 0 0.0 0.0 0.01 2.45 0.01 95 1009.7
20260906062917 72 0 0.0 0.0 0.01 2.45 0.01 94 1009.6
20260906061807 72 0 0.0 0.0 0.01 2.45 0.01 94 1009.6
20260906060907 73 0 0.0 0.0 0.01 2.45 0.01 94 1009.6
20260906060008 73 0 0.0 0.0 0.01 2.45 0.01 94 1009.7
20260906055407 73 0 0.0 0.0 0.01 2.45 0.01 94 1009.7
20260906054507 73 0 0.0 0.0 0.01 2.45 0.01 94 1009.7
20260906053818 73 0 0.0 0.0 0.00 2.44 0.00 94 1009.7
20260906052707 73 0 0.0 0.0 0.00 2.44 0.00 94 1009.7
20260906051807 73 0 0.0 0.0 0.00 2.44 0.00 94 1009.6
20260906050907 73 0 0.0 0.0 0.00 2.44 0.00 94 1009.5
20260906050007 73 0 0.0 0.0 0.00 2.44 0.00 94 1009.5
20260906045407 73 0 0.0 0.0 0.00 2.44 0.00 94 1009.4
20260906044507 73 0 0.0 0.0 0.00 2.44 0.00 94 1009.6
20260906043607 73 0 0.0 0.0 0.00 2.44 0.00 94 1009.9
20260906042707 74 0 0.0 0.0 0.00 2.44 0.00 94 1010.0
20260906042016 74 0 0.0 0.0 0.00 2.44 0.00 94 1010.2
20260906040907 73 0 0.0 0.0 0.00 2.44 0.00 94 1010.5
20260906040008 73 0 0.0 0.0 0.01 2.44 0.00 94 1010.6
20260906035618 73 0 0.0 0.0 0.05 2.44 2.44 94 1010.7
20260906034507 73 69 0.0 2.6 0.16 2.44 2.44 94 1010.7
20260906033607 73 53 0.9 2.6 0.16 2.44 2.44 94 1010.8
20260906032707 73 31 0.9 2.6 0.17 2.44 2.44 94 1010.5
20260906032020 73 51 0.9 3.5 0.17 2.44 2.44 94 1010.4
20260906030907 73 119 0.9 6.1 0.21 2.44 2.44 94 1010.6
20260906030218 73 199 2.6 11.3 0.21 2.44 2.44 93 1010.7
20260906025618 73 229 2.6 11.3 0.16 2.39 2.39 93 1010.9
20260906024507 73 316 0.9 7.0 0.05 2.28 2.28 92 1011.6
20260906023817 73 27 0.9 5.2 0.05 2.28 2.28 92 1011.1
20260906022707 73 181 0.0 2.6 0.04 2.27 2.27 92 1010.7
20260906021807 73 118 0.9 5.2 0.04 2.27 2.27 92 1010.5
20260906020907 73 62 0.0 2.6 0.00 2.23 2.23 92 1011.0
20260906020007 73 62 1.7 8.7 0.00 2.23 2.23 92 1010.9
20260906015407 73 65 1.7 7.0 0.00 2.23 2.23 92 1010.9
20260906014507 73 56 3.5 9.6 0.00 2.23 2.23 91 1010.5
20260906013607 74 28 1.7 5.2 0.00 2.23 2.23 90 1010.5
20260906012708 75 355 0.9 5.2 0.00 2.23 2.23 90 1010.4
20260906011807 75 277 0.9 5.2 0.00 2.23 2.23 90 1010.2
20260906010907 74 256 1.7 7.0 0.00 2.23 2.23 90 1009.9
20260906010007 74 247 1.7 6.1 0.00 2.23 2.23 90 1009.7
20260906005407 74 251 1.7 7.0 0.00 2.23 2.23 90 1009.5
20260906004507 74 253 1.7 7.0 0.00 2.23 2.23 91 1009.3
20260906003608 74 237 1.7 6.1 0.00 2.23 2.23 91 1009.6
20260906002707 74 231 0.9 5.2 0.01 2.23 2.23 91 1009.7
20260906001807 74 232 1.7 5.2 0.20 2.23 2.23 91 1009.7
20260906000907 74 265 0.9 3.5 0.35 2.23 2.23 92 1009.6
20260906000219 73 260 1.7 9.6 0.54 2.23 2.23 92 1009.7
20260905235617 73 250 2.6 9.6 0.97 2.23 2.23 92 1009.7
20260905234507 73 265 0.9 7.0 2.15 2.23 2.23 92 1009.7
20260905233607 72 263 1.7 8.7 2.23 2.23 2.23 92 1010.1
20260905232707 71 287 1.7 11.3 2.22 2.22 2.22 91 1009.9
20260905231807 71 302 1.7 11.3 2.03 2.03 2.03 91 1011.2
20260905230907 71 313 1.7 25.2 1.88 1.88 1.88 90 1012.0
20260905230008 71 338 7.0 26.9 1.62 1.62 1.62 89 1012.5
20260905225407 72 334 7.0 26.9 1.05 1.05 1.05 85 1012.3
20260905224507 79 324 5.2 27.8 0.08 0.08 0.10 79 1011.6
20260905223607 85 215 4.3 13.0 0.00 0.00 0.00 85 1009.7
20260905222918 85 214 4.3 13.0 0.00 0.00 0.00 84 1008.8
20260905221807 86 221 3.5 15.6 0.00 0.00 0.00 83 1009.0
20260905220907 86 223 3.5 15.6 0.00 0.00 0.00 82 1008.9
20260905220007 87 224 4.3 17.4 0.00 0.00 0.00 82 1008.6
20260905215407 87 216 6.1 18.2 0.00 0.00 0.00 81 1008.0
20260905214507 88 213 5.2 17.4 0.00 0.00 0.00 80 1008.3
20260905213607 88 227 4.3 15.6 0.00 0.00 0.00 79 1008.5
20260905212707 89 233 5.2 14.8 0.00 0.00 0.00 79 1008.4
20260905211807 89 226 5.2 17.4 0.00 0.00 0.00 78 1008.7
20260905211117 89 227 6.1 18.2 0.00 0.00 0.00 77 1008.6
20260905210007 89 224 6.1 20.9 0.00 0.00 0.00 77 1008.5
20260905205407 89 223 7.0 19.1 0.00 0.00 0.00 76 1008.4
20260905204507 90 213 4.3 13.0 0.00 0.00 0.00 76 1008.2
20260905203818 90 223 5.2 17.4 0.00 0.00 0.00 76 1008.5
20260905202918 90 224 5.2 17.4 0.00 0.00 0.00 75 1008.4
20260905201807 91 216 5.2 17.4 0.00 0.00 0.00 75 1008.5
20260905200907 91 222 6.1 19.1 0.00 0.00 0.00 75 1008.5
20260905200216 92 219 5.2 15.6 0.00 0.00 0.00 74 1008.5
20260905195407 92 226 5.2 20.9 0.00 0.00 0.00 75 1008.5
20260905194507 92 210 3.5 15.6 0.00 0.00 0.00 75 1008.7
20260905193607 92 223 5.2 15.6 0.00 0.00 0.00 72 1008.5
20260905192707 92 225 5.2 14.8 0.00 0.00 0.00 73 1008.8
20260905192017 92 204 4.3 14.8 0.00 0.00 0.00 74 1009.0
20260905191116 93 218 6.1 18.2 0.00 0.00 0.00 72 1009.2
20260905190007 93 206 4.3 14.8 0.00 0.00 0.00 72 1009.4
20260905185407 93 204 4.3 20.9 0.00 0.00 0.00 71 1009.5
20260905184507 94 223 5.2 17.4 0.00 0.00 0.00 71 1009.7
20260905183818 94 203 2.6 17.4 0.00 0.00 0.00 71 1009.8
20260905182707 92 208 3.5 12.2 0.00 0.00 0.00 72 1010.0
20260905181807 93 195 2.6 12.2 0.00 0.00 0.00 71 1010.0
20260905180907 94 185 2.6 12.2 0.00 0.00 0.00 69 1010.1
20260905180219 95 199 2.6 12.2 0.00 0.00 0.00 68 1010.1
20260905175407 97 220 3.5 14.8 0.00 0.00 0.00 67 1010.3
20260905174718 97 233 2.6 9.6 0.00 0.00 0.00 67 1010.3
20260905173607 96 220 3.5 12.2 0.00 0.00 0.00 69 1010.5
20260905172917 96 234 5.2 14.8 0.00 0.00 0.00 68 1010.6
20260905171807 97 291 0.9 6.1 0.00 0.00 0.00 64 1010.6
20260905170907 97 274 1.7 8.7 0.00 0.00 0.00 62 1010.7
20260905170007 97 264 1.7 9.6 0.00 0.00 0.00 64 1010.9
20260905165407 97 237 1.7 9.6 0.00 0.00 0.00 64 1010.9
20260905164507 97 271 1.7 11.3 0.00 0.00 0.00 64 1011.0
20260905163607 97 272 1.7 8.7 0.00 0.00 0.00 66 1011.2
20260905162707 97 288 0.9 9.6 0.00 0.00 0.00 66 1011.3
20260905161807 96 267 2.6 11.3 0.00 0.00 0.00 66 1011.5
20260905160907 96 270 0.9 6.1 0.00 0.00 0.00 67 1011.5
20260905160007 96 283 1.7 8.7 0.00 0.00 0.00 69 1011.9
20260905155407 95 276 1.7 8.7 0.00 0.00 0.00 69 1011.9
20260905154507 95 271 1.7 9.6 0.00 0.00 0.00 69 1011.9
20260905153607 95 266 1.7 11.3 0.00 0.00 0.00 70 1012.1
20260905152916 94 268 2.6 11.3 0.00 0.00 0.00 69 1012.1
20260905152019 94 237 3.5 11.3 0.00 0.00 0.00 70 1012.2
20260905150907 94 278 2.6 12.2 0.00 0.00 0.00 70 1012.3
20260905150008 94 285 1.7 8.7 0.00 0.00 0.00 71 1012.3
20260905145408 93 271 2.6 12.2 0.00 0.00 0.00 72 1012.3
20260905144507 93 250 3.5 13.0 0.00 0.00 0.00 71 1012.3
20260905143607 92 250 4.3 13.0 0.00 0.00 0.00 72 1012.3
20260905142707 92 280 2.6 12.2 0.00 0.00 0.00 74 1012.4
20260905141807 91 272 3.5 12.2 0.00 0.00 0.00 74 1012.5
20260905140907 91 272 3.5 12.2 0.00 0.00 0.00 74 1012.7
20260905140008 90 268 2.6 12.2 0.00 0.00 0.00 75 1012.6
20260905135408 90 274 1.7 11.3 0.00 0.00 0.00 76 1012.7
20260905134508 89 277 2.6 12.2 0.00 0.00 0.00 76 1012.6
20260905133607 88 286 2.6 13.0 0.00 0.00 0.00 77 1012.6
20260905132708 88 273 2.6 14.8 0.00 0.00 0.00 77 1012.6
20260905131807 88 278 1.7 11.3 0.00 0.00 0.00 79 1012.6
20260905130907 86 271 2.6 14.8 0.00 0.00 0.00 80 1012.6
20260905130007 86 269 3.5 15.6 0.00 0.00 0.00 79 1012.7
20260905125408 86 272 2.6 15.6 0.00 0.00 0.00 80 1012.7
20260905124507 86 267 2.6 11.3 0.00 0.00 0.00 81 1012.8
20260905123607 85 274 1.7 9.6 0.00 0.00 0.00 83 1012.7
20260905122707 84 278 1.7 11.3 0.00 0.00 0.00 84 1012.6
20260905122018 83 278 1.7 11.3 0.00 0.00 0.00 86 1012.7
20260905120907 82 255 0.9 8.7 0.00 0.00 0.00 90 1012.7
20260905120008 80 285 0.9 5.2 0.00 0.00 0.00 93 1012.6
20260905115407 80 280 0.0 3.5 0.00 0.00 0.00 95 1012.5
20260905114507 78 254 0.9 6.1 0.00 0.00 0.00 96 1012.4